sat.trackr.live / text

‹ back to catalog

STARLINK-30126

NORAD 56694 · 2023-067G

PAYLOAD ACTIVE UNKNOWN

§ Identity

Operator
Country
US
Launch date
2023-05-19
Launch site
AFETR
Launch vehicle
Mass (kg)
RCS (m²)

Purposes: comms

External: N2YO · Heavens-Above · Gunter

§ Orbital elements

Epoch: 2026-05-25T04:50:42.730944Z

Period
94.27 min
Inclination
43.0030°
Eccentricity
0.0001871
Mean motion
15.27580739 rev/d
Perigee alt
481.8 km
Apogee alt
484.3 km
Semi-major
6,861.2 km
B*
2.7199e-4
RAAN
202.1954°
Arg perigee
259.8247°
Mean anomaly
100.2394°
Rev number
16,736

§ Raw data

STARLINK-301261 56694U 23067G   26145.20188346  .00007230  00000+0  27199-3 0  99902 56694  43.0030 202.1954 0001871 259.8247 100.2394 15.27580739167368

JSON: /api/v1/satellites/56694 · /tle

For live sub-satellite position, see the globe view (requires WebGL).

§ Visibility from observer

Set your observer location to see the next 7 days of passes ≥ 10°. The values pass through the URL so the page stays shareable.

No JS? Fill the form by hand. The geolocation button needs JavaScript.